Regional Weather Roundup
Issued by NWS Bismarck, ND

Home | Current Version | Previous Version | Text Only | Print | Product List | Glossary On
Versions: 1 2 3 4 5 6 7 8 9 10 11 12 13 14 15 16 17 18 19 20 21 22 23 24 25 26 27 28 29 30 31 32 33 34 35 36 37 38 39 40 41 42 43 44 45 46 47 48 49 50
924
ASUS43 KBIS 271410
RWRBIS

NWR BROADCAST TEXT
NATIONAL WEATHER SERVICE BISMARCK ND
900 AM CDT MON MAR 27 2017

NOTE: "FAIR" INDICATES FEW OR NO CLOUDS BELOW 12,000 FEET WITH NO
SIGNIFICANT WEATHER AND/OR OBSTRUCTIONS TO VISIBILITY.


CITY           SKY/WX    TMP DP  RH WIND       PRES   REMARKS
WILLISTON      FAIR      33  28  81 NE5       29.89S
MINOT          FAIR      38  35  89 W8        29.90R
MINOT AFB      FOG       30  28  93 NW7       29.90R VSB 1/4
BISMARCK       FAIR      36  33  89 CALM      29.93S
DICKINSON      FAIR      33  30  88 SW6       29.87R
GARRISON         N/A     34  31  88 CALM      29.90R
HETTINGER ARPT FAIR      32  30  92 CALM      29.91R
JAMESTOWN      FOG       32  32 100 SE3       29.94S VSB 1/4
HAZEN          FAIR      34  32  93 CALM      29.93R
LINTON           N/A     36  36 100 E3        29.95S
MANDAN         FAIR      37  36  93 SW5       29.92R
STANLEY        PTSUNNY   34  34 100 CALM      29.92R
TIOGA          FAIR      32  32 100 SE6       29.90S
WATFORD CITY   FAIR      34  32  93 CALM      29.89S
$$

CITY           SKY/WX    TMP DP  RH WIND       PRES   REMARKS
GRAND FORKS    FOG       37  37 100 NE3       29.99R VSB 1/4
GRAND FORKS AF FOG       36  36 100 CALM      29.99S VSB 1/4
DEVILS LAKE    MIX PCPN  30  30 100 SE8       29.94R VSB 1/4
FARGO          FOG       32  32 100 NE3       29.99R VSB<1/4
CAVALIER       FOG       32  32 100 SW6       29.99R VSB<1/4
GRAFTON        FOG       34  34 100 CALM      30.01F VSB<1/4
GWINNER        SUNNY     37  36  93 MISG      29.97R
LANGDON        FOG       32  32 100 SE14      29.95R VSB<1/4
ROLLA          CLOUDY    32  34 100 SE3       29.92R FOG
$$

CITY           SKY/WX    TMP DP  RH WIND       PRES   REMARKS
ABERDEEN       FAIR      37  34  89 SE7       29.96S
MOBRIDGE       FAIR      35  31  85 S6        29.91S FOG
BUFFALO          N/A     40  36  86 E3        29.83R
RAPID CITY     FOG       28  27  96 CALM      29.89R VSB 1/4
GLASGOW        CLOUDY    41  29  62 E8        29.85S
SIDNEY         FAIR      37  30  75 CALM      29.88S
WOLF POINT     CLOUDY    35  30  82 N5        29.88R
GLENDIVE       PTSUNNY   37  29  72 CALM      29.87S
MILES CITY     CLOUDY    41  33  73 NE5       29.83S
BAKER          FAIR      37  33  85 SE8       29.87S
$$

CITY           SKY/WX    TMP DP  RH WIND       PRES   REMARKS
BILLINGS       MOCLDY    42  31  64 SW9       29.83R
GREAT FALLS    FAIR      36  30  79 SW9       29.81R
REGINA         FOG       28  28 100 VRB2      29.93R VSB 1/4
ESTEVAN        CLOUDY    30  28  93 NE3       29.91S
$$





USA.gov is the U.S. government's official web portal to all federal, state and local government web resources and services.